TOURFACTS.DK  
Stats and Facts from Tour de France.

Tour de France 2018 starts in 170 days
  Riders   Stages   Teams   Summits   Yearly  


 
Search by year

 2017 - St.21:
 14824 starters.
  5132 different riders.
  635 teams.
  2232 stages.
  454 restdays.
  439589.60 km.
  5653 abandonnees.


Top 3
GC
Christopher Froome86:20:55
Rigoberto Uran86:21:49
Romain Bardet86:23:15
Climb
Warren Barguil169 pt.
Primoz Roglic80 pt.
Thomas De Gendt64 pt.
Sprint
Michael Matthews359 pt.
André Greipel234 pt.
Edvald Boasson Hagen220 pt.
Youth
Simon Yates86:27:09
Louis Meintjes86:29:15
Emanuel Buchmann86:54:16
Facts from Tour de France 1963
  |   Stages.  |   Stage winners.  |   Days in yellow  |   Average speed.  |   Route.  |   Teams.  |   All riders.  |   Rookies.  |   Withdrawls.  |  

  |   GC.  |   Polka  |   Green  |   White  |   Summits. (In tour)  |   Summits. (Points)  |   Miscellaneous.  |  

Stage 11 on 03 - 07 - 1963
         Owning:    Gilbert Desmet 1    
Pick a stage:  1 2a 2b 3 4 5 6a 6b 7 8 9 10 11 12 13 14 15 16 17 18 19 20 21
  Bagnères-de-BigorreLuchon | Dist: 131.00 km.
Cat: 2Col d'AspinFRAGuy Ignolin
10 points
 
Cat: 2Col de PeyresourdeESPFederico Bahamontes
10 points
 
Cat: 2Col du PortillonFRAGuy Ignolin
10 points
 

Average speed for all riders in stage:  33,583 km./hr.
    Place:Name:Team:Time:Km/h:
FRAGuy IgnolinFRASaint Raphael-Geminiani-Dunlop03:47:34  +  00:00:00=34,539 
FRAClaude MattioFRAMargnat-Paloma-Motul-Dunlop03:48:49  +  00:01:15=34,351 
FRAGuy EpaudFRAPelforth-Sauvage-Lejeune-Wolbe..03:49:15  +  00:01:41=34,286 
4 FRARaymond PoulidorFRAMercier-BP-Hutchinson03:50:00  +  00:02:26=34,174 
5 ESPJosé Pérez FrancésESPFerrys03:50:11  +  00:02:37=34,147 
6 ESPAngelino SolerBELFaema-Flandria03:50:11  +  00:02:37=34,147 
7 FRAJacques AnquetilFRASaint Raphael-Geminiani-Dunlop03:50:11  +  00:02:37=34,147 
8 ESPFederico BahamontesFRAMargnat-Paloma-Motul-Dunlop03:50:21  +  00:02:47=34,122 
9 FRAJean GaincheFRAMercier-BP-Hutchinson03:50:39  +  00:03:05=34,078 
10 BELGilbert Desmet 1BELWiel´s-Groene Leeuw03:50:54  +  00:03:20=34,041 
11 BELMichel Van AerdeFRASolo-Terrot-Englebert03:50:54  +  00:03:20=34,041 
12 FRAFrançois MahéFRAPelforth-Sauvage-Lejeune-Wolbe..03:50:56  +  00:03:22=34,036 
13 BELEddy PauwelsBELWiel´s-Groene Leeuw03:50:56  +  00:03:22=34,036 
14 ENGAlan RamsbottomFRAPelforth-Sauvage-Lejeune-Wolbe..03:50:56  +  00:03:22=34,036 
15 ITARenzo FontonaBELI.B.A.C-Molteni03:50:56  +  00:03:22=34,036 
16 GERDieter PuschelBELWiel´s-Groene Leeuw03:50:56  +  00:03:22=34,036 
17 BELFerdinand BrackeFRAPeugeot-BP-Englebert03:50:59  +  00:03:25=34,028 
18 BELJaak De BoeverFRASolo-Terrot-Englebert03:50:59  +  00:03:25=34,028 
19 BELVictor Van SchilFRAMercier-BP-Hutchinson03:50:59  +  00:03:25=34,028 
20 ITADanilo FerrariBELI.B.A.C-Molteni03:50:59  +  00:03:25=34,028 
21 FRAJean-Claude LebaubeFRASaint Raphael-Geminiani-Dunlop03:50:59  +  00:03:25=34,028 
22 FRAHenry DuezFRAPeugeot-BP-Englebert03:50:59  +  00:03:25=34,028 
23 FRAGérard ThiélinFRASaint Raphael-Geminiani-Dunlop03:50:59  +  00:03:25=34,028 
24 FRAJoseph GroussardFRAPelforth-Sauvage-Lejeune-Wolbe..03:50:59  +  00:03:25=34,028 
25 BELWilly BocklantBELFaema-Flandria03:50:59  +  00:03:25=34,028 
26 BELJos HoevenaersFRAPeugeot-BP-Englebert03:50:59  +  00:03:25=34,028 
27 BELArmand DesmetBELFaema-Flandria03:50:59  +  00:03:25=34,028 
28 ESPEsteban MartinESPFerrys03:50:59  +  00:03:25=34,028 
29 GERHans JunkermannBELWiel´s-Groene Leeuw03:50:59  +  00:03:25=34,028 
30 BELMartin Van GeneugdenBELG.B.C-Libertas03:50:59  +  00:03:25=34,028 
31 ESPFernando ManzanequeESPFerrys03:51:06  +  00:03:32=34,011 
32 ESPMiguel PachecoNLDKas03:51:18  +  00:03:44=33,982 
33 NEDAlbertus GeldermansFRASaint Raphael-Geminiani-Dunlop03:51:18  +  00:03:44=33,982 
34 ESPRogelio HernandezESPFerrys03:51:18  +  00:03:44=33,982 
35 FRAAndré DarrigadeFRAMargnat-Paloma-Motul-Dunlop03:51:29  +  00:03:55=33,955 
36 NEDDick EnthovenFRAPelforth-Sauvage-Lejeune-Wolbe..03:51:29  +  00:03:55=33,955 
37 ESPFrancisco GabicNLDKas03:51:29  +  00:03:55=33,955 
38 BELFrans BrandsBELFaema-Flandria03:51:32  +  00:03:58=33,948 
39 ITAGiuseppe SartoreITACarpano03:51:38  +  00:04:04=33,933 
40 ITACarlo AzziniITACarpano03:51:38  +  00:04:04=33,933 
41 ITAGraziano BattistiniBELI.B.A.C-Molteni03:51:41  +  00:04:07=33,926 
42 ESPAntonio SuarezBELFaema-Flandria03:51:43  +  00:04:09=33,921 
43 BELRik Van LooyBELG.B.C-Libertas03:51:45  +  00:04:11=33,916 
44 ESPEmilio CruzESPFerrys03:51:51  +  00:04:17=33,901 
45 ESPSebastián ElorzaNLDKas03:51:53  +  00:04:19=33,896 
46 FRAAndré FoucherFRAPelforth-Sauvage-Lejeune-Wolbe..03:51:55  +  00:04:21=33,891 
47 FRAJean StablinskiFRASaint Raphael-Geminiani-Dunlop03:51:55  +  00:04:21=33,891 
48 FRARobert CazalaFRAMercier-BP-Hutchinson03:51:55  +  00:04:21=33,891 
49 ESPAntonio KarmanyESPFerrys03:52:01  +  00:04:27=33,877 
50 FRAHenri AngladeFRAPelforth-Sauvage-Lejeune-Wolbe..03:52:09  +  00:04:35=33,857 
51 LUXCharly GaulFRAPeugeot-BP-Englebert03:52:16  +  00:04:42=33,840 
52 BELGilbert Desmet 2BELWiel´s-Groene Leeuw03:52:23  +  00:04:49=33,823 
53 ESPJuan CampilloFRAMargnat-Paloma-Motul-Dunlop03:52:24  +  00:04:50=33,821 
54 ESPValentin UrionaNLDKas03:52:26  +  00:04:52=33,816 
55 BELJoseph PlanckaertBELFaema-Flandria03:52:28  +  00:04:54=33,811 
56 ITAGermano BaraleITACarpano03:52:28  +  00:04:54=33,811 
57 ESPLuis OtañoFRAMargnat-Paloma-Motul-Dunlop03:52:28  +  00:04:54=33,811 
58 FRAPierre BeuffeuilFRAMercier-BP-Hutchinson03:52:28  +  00:04:54=33,811 
59 FRAJean DottoFRAMargnat-Paloma-Motul-Dunlop03:52:32  +  00:04:58=33,802 
60 BELAlfons HellemansFRAMercier-BP-Hutchinson03:52:36  +  00:05:02=33,792 
61 ESPGabriel MasESPFerrys03:52:39  +  00:05:05=33,785 
62 ESPAntonio BertranESPFerrys03:52:39  +  00:05:05=33,785 
63 BELMarcel OngenaeBELFaema-Flandria03:53:05  +  00:05:31=33,722 
64 FRAJoseph ThominFRAMargnat-Paloma-Motul-Dunlop03:53:13  +  00:05:39=33,703 
65 SUIKurt GimmiITACarpano03:53:26  +  00:05:52=33,671 
66 BELHenri De WolfFRASolo-Terrot-Englebert03:53:53  +  00:06:19=33,606 
67 BELFrans AerenhoutsBELG.B.C-Libertas03:53:53  +  00:06:19=33,606 
68 BELAugust VerhaegenFRAMercier-BP-Hutchinson03:53:53  +  00:06:19=33,606 
69 NEDHuub ZilverbergBELG.B.C-Libertas03:53:53  +  00:06:19=33,606 
70 ITAGuido CarlesiBELI.B.A.C-Molteni03:54:03  +  00:06:29=33,583 
71 BELLudo JanssensBELG.B.C-Libertas03:54:39  +  00:07:05=33,497 
72 FRAJean DupontFRAMargnat-Paloma-Motul-Dunlop03:54:39  +  00:07:05=33,497 
73 ESPJosé GomezBELFaema-Flandria03:54:39  +  00:07:05=33,497 
74 ITAGiancarlo GentinaITACarpano03:54:51  +  00:07:17=33,468 
75 ESPJulio San EmeterioESPFerrys03:55:37  +  00:08:03=33,359 
76 BELBenoni BeheytBELWiel´s-Groene Leeuw03:55:56  +  00:08:22=33,314 
77 ITALoris GuernieriITACarpano03:55:59  +  00:08:25=33,307 
78 ITAAntonio BailettiITACarpano03:55:59  +  00:08:25=33,307 
79 FRAPierre EveraertFRASaint Raphael-Geminiani-Dunlop03:55:59  +  00:08:25=33,307 
80 IRLSeamus ElliottFRASaint Raphael-Geminiani-Dunlop03:55:59  +  00:08:25=33,307 
81 FRAJean GraczykFRAMargnat-Paloma-Motul-Dunlop03:55:59  +  00:08:25=33,307 
82 FRAAnatole NovakFRASaint Raphael-Geminiani-Dunlop03:55:59  +  00:08:25=33,307 
83 BELRobert LelangueFRASolo-Terrot-Englebert03:56:19  +  00:08:45=33,260 
84 ITAGiuseppe CeramiFRAPeugeot-BP-Englebert03:56:31  +  00:08:57=33,232 
85 BELGuillaume Van TongerlooBELG.B.C-Libertas03:56:51  +  00:09:17=33,186 
86 BELRaymond ImpanisFRAPeugeot-BP-Englebert03:57:29  +  00:09:55=33,097 
87 BELWilly DerbovenBELG.B.C-Libertas03:57:29  +  00:09:55=33,097 
88 BELJean SimonFRAPeugeot-BP-Englebert04:02:14  +  00:14:40=32,448 
89 BELMarcel SeynaeveFRASolo-Terrot-Englebert04:02:14  +  00:14:40=32,448 
90 BELAndré MesselisBELWiel´s-Groene Leeuw04:02:16  +  00:14:42=32,444 
91 BELRené Van MeenenBELWiel´s-Groene Leeuw04:02:56  +  00:15:22=32,355 
92 ITARoberto FalaschiBELI.B.A.C-Molteni04:02:56  +  00:15:22=32,355 
93 BELYvo MolenaersBELWiel´s-Groene Leeuw04:02:56  +  00:15:22=32,355 
94 BELRoger De BreukerFRASolo-Terrot-Englebert04:02:56  +  00:15:22=32,355 
95 BELLouis ProostFRASolo-Terrot-Englebert04:02:56  +  00:15:22=32,355 
96 BELDaniel DoomBELWiel´s-Groene Leeuw04:03:35  +  00:16:01=32,268 
97 FRALouis RostollanFRASaint Raphael-Geminiani-Dunlop04:03:35  +  00:16:01=32,268 
98 ESPRaúl ReyESPFerrys04:06:00  +  00:18:26=31,951 
99 FRAJean MilesiFRAMercier-BP-Hutchinson04:06:53  +  00:19:19=31,837 
100 BELEmile DaemsFRAPeugeot-BP-Englebert04:06:57  +  00:19:23=31,828 
101 FRAGeorges GroussardFRAPelforth-Sauvage-Lejeune-Wolbe..04:09:34  +  00:22:00=31,495 

Withdrawls: 5
 
Rider
Team
Reason
28  BELClément RomanBELFaema-FlandriaDid not finish
85  BELWilly SchroedersBELG.B.C-LibertasDid not finish
86  BELEdgard SorgeloosBELG.B.C-LibertasDid not finish
101  ESPAntonio BarrutiaNLDKasDid not finish
123  BELArthur DecabooterFRASolo-Terrot-EnglebertDid not finish

Todays birthdays.

1874  Pierre Cnops
1888  Paul Boillat
1911  Roger Lapebie
1940  Angelo Ottaviani
1944  Pieter Nassen
1956  Serge Demierre
1957  Erwin Lienhard
1959  Jean-Marie Grezet
1960  Ludo De Keulenaer
1961  Dirk De Wolf
1961  Carlos Jaramillo
1980  Lars Bak